Regional Weather Roundup
Issued by NWS

Home | Current Version | Previous Version | Text Only | Print | Product List | Glossary Off
Versions: 1 2 3 4 5 6 7 8 9 10 11 12 13 14 15 16 17 18 19 20 21 22 23 24 25 26 27 28 29 30 31 32 33 34 35 36 37 38 39 40 41 42 43 44 45 46 47 48 49 50

000
ASUS45 KBOU 231007
RWRCO

WEATHER ROUNDUP FOR COLORADO
NATIONAL WEATHER SERVICE DENVER/BOULDER CO
400 AM MDT SUN JUL 23 2017

NOTE: "FAIR" INDICATES FEW OR NO CLOUDS BELOW 12000 FEET WITH NO
SIGNIFICANT WEATHER AND/OR OBSTRUCTIONS TO VISIBILITY.

COZ001>005-013-030-031-231100-
...NORTHWEST COLORADO...

CITY           SKY/WX    TMP DP  RH WIND       PRES   REMARKS
CRAIG          FAIR      48  42  80 CALM      30.25S
HAYDEN         FAIR      55  34  44 E12       30.28S
MEEKER         FAIR      51  41  68 NE3       30.26S
RABBIT EARS PA FAIR      55  30  38 E6        30.58F
STEAMBOAT SPGS FAIR      49  40  70 CALM      30.31S
WALDEN         FAIR      41  34  75 SE3       30.43S
$$

COZ006>008-011-231100-
...WEST CENTRAL VALLEYS...

CITY           SKY/WX    TMP DP  RH WIND       PRES   REMARKS
GRAND JUNCTION FAIR      71  50  47 E14       30.12S
MONTROSE       FAIR      68  48  48 E17       30.23S
EAGLE          FAIR      53  45  74 SE5       30.34R
RIFLE          FAIR      60  42  51 SE5       30.21R
DELTA          FAIR      67  49  52 NE7       30.19S
NUCLA          NOT AVBL
$$

COZ017>023-064>068-231100-
...SOUTHWEST COLORADO...

CITY           SKY/WX    TMP DP  RH WIND       PRES   REMARKS
DURANGO        FAIR      59  52  77 CALM      30.28S
CORTEZ         FAIR      56  52  86 NE5       30.21S
PAGOSA SPRINGS CLOUDY    60  48  65 NE3       30.36R
TELLURIDE      FAIR      53  42  65 SE7       30.45F
WOLF CREEK PAS NOT AVBL
$$

COZ009-010-012-014-032>034-037-058>063-231100-
...CENTRAL COLORADO...

CITY           SKY/WX    TMP DP  RH WIND       PRES   REMARKS
ASPEN          FAIR      55  43  63 SW8       30.36S
BUENA VISTA    FAIR      54  47  78 NW10      30.41F
COPPER MTN     FAIR      54  34  47 S7        30.69S
BERTHOUD PASS  FAIR      45  32  61 SE9       30.73F
COTTONWOOD PAS FAIR      59  37  44 SW8       30.53S
GUNNISON       FAIR      51  47  86 CALM      30.40
KREMMLING      FAIR      54  45  71 CALM      30.39S
LEADVILLE      FAIR      41  38  89 NE6       30.53S
MONARCH PASS   FAIR      48  36  61 E10       30.77S
SALIDA         FAIR      55  48  79 NW5       30.46S
SUNLIGHT       FAIR      52  32  46 E3        30.61S
WILKERSON PASS FAIR      50  37  62 NE6       30.66F
$$

COZ069>075-231100-
...SAN LUIS VALLEY/SANGRE DE CRISTO MOUNTAINS...

CITY           SKY/WX    TMP DP  RH WIND       PRES   REMARKS
ALAMOSA        FAIR      56  52  86 W6        30.35F
DEL NORTE      NOT AVBL
LA VETA PASS   NOT AVBL
SAGUACHE         N/A    N/A N/A N/A MISG        N/A
$$

COZ035-036-038>040-231100-
...NORTHERN COLORADO FRONT RANGE...

CITY           SKY/WX    TMP DP  RH WIND       PRES   REMARKS
DENVER INTL AP FAIR      64  54  69 W10       30.18S
DMNS CITY PARK   N/A     66  51  57 N6        30.19S
AURORA         PTCLDY    63  54  74 SW8       30.21F
FRONT RANGE AP FAIR      64  54  68 SW10      30.20S
ERIE MUNI ARPT FAIR      60  54  79 CALM      30.18S
BOULDER MUN AP FAIR      64  50  59 CALM      30.18F
CENTENNIAL     FAIR      63  52  67 W7        30.23S
BROOMFIELD     FAIR      66  50  55 NW3       30.22S
FORT COLLINS   FAIR      63  53  70 N6        30.18S
LONGMONT       FAIR      61  50  68 W3        30.20S
$$

COZ041-046-047-076>085-087-088-231100-
...PIKES PEAK/PALMER DIVIDE AND SOUTHERN FOOTHILLS...

CITY           SKY/WX    TMP DP  RH WIND       PRES   REMARKS
COLO. SPRINGS  MOCLDY    66  54  65 S6        30.28R
A. F. ACADEMY  FAIR      57  52  82 CALM      30.28S
SCHRIEVER AFB  FAIR      61  51  70 N3        30.28R
CHEYENNE MTN   FAIR      62  49  61 S9        30.27S
ELLICOTT       FAIR     N/A N/A N/A CALM      30.26R
FALCON           N/A     58  50  74 CALM      30.32S
FORT CARSON    FAIR      65  50  60 CALM      30.25R
LIMON          FAIR      56  55  97 CALM      30.22R
MONUMENT HILL  FAIR      55  50  82 SW6       30.32S
CANON CITY     CLEAR     64  55  72 CALM      30.22R
WALSENBURG     FAIR      61  54  77 S3        30.25S
TRINIDAD       FAIR      62  52  69 W8        30.24R
$$

COZ042>045-048>051-090-091-231100-
...NORTHEAST COLORADO...

CITY           SKY/WX    TMP DP  RH WIND       PRES   REMARKS
GREELEY ARPT   FAIR      60  55  83 N3        30.16S
AKRON          FAIR      66  46  48 S9        30.16S
BURLINGTON     FAIR      59  55  87 W6        30.13F
WRAY           NOT AVBL
YUMA           FAIR      57  52  82 SW5       30.13S
STERLING       FAIR      59  57  94 NE3       30.12S
HOLYOKE        FAIR      59  54  82 W6        30.12R
FORT MORGAN    FAIR      59  51  73 NE5       30.16R
$$

COZ086-089-092>099-231100-
...SOUTHEAST COLORADO...

CITY           SKY/WX    TMP DP  RH WIND       PRES   REMARKS
PUEBLO         FAIR      66  55  67 NE8       30.16S
LA JUNTA       FAIR      62  53  72 N8        30.13S
LAMAR          FAIR      61  56  83 SW3       30.09S
SPRINGFIELD      N/A     61  58  90 NW8       30.11F
$$



USA.gov is the U.S. government's official web portal to all federal, state and local government web resources and services.